Year,Month,Day,Hour,Minute,Value (Times are PST for temperature in C)
2011,04,21,00,00,3.20
2011,04,21,00,01,3.20
2011,04,21,00,02,3.20
2011,04,21,00,03,3.20
2011,04,21,00,04,3.20
2011,04,21,00,05,3.20
2011,04,21,00,06,3.20
2011,04,21,00,07,3.20
2011,04,21,00,08,3.20
2011,04,21,00,09,3.20
2011,04,21,00,10,3.20
2011,04,21,00,11,3.30
2011,04,21,00,12,3.30
2011,04,21,00,13,3.30
2011,04,21,00,14,3.30
2011,04,21,00,15,3.30
2011,04,21,00,16,3.30
2011,04,21,00,17,3.30
2011,04,21,00,18,3.30
2011,04,21,00,19,3.30
2011,04,21,00,20,3.30
2011,04,21,00,21,3.30
2011,04,21,00,22,3.30
2011,04,21,00,23,3.30
2011,04,21,00,24,3.30
2011,04,21,00,25,3.30
2011,04,21,00,26,3.30
2011,04,21,00,27,3.30
2011,04,21,00,28,3.30
2011,04,21,00,29,3.30
2011,04,21,00,30,3.30
2011,04,21,00,31,3.30
2011,04,21,00,32,3.30
2011,04,21,00,33,3.30
2011,04,21,00,34,3.20
2011,04,21,00,35,3.20
2011,04,21,00,36,3.20
2011,04,21,00,37,3.10
2011,04,21,00,38,3.10
2011,04,21,00,39,3.10
2011,04,21,00,40,3.10
2011,04,21,00,41,3.10
2011,04,21,00,42,3.10
2011,04,21,00,43,3.10
2011,04,21,00,44,3.10
2011,04,21,00,45,3.00
2011,04,21,00,46,2.80
2011,04,21,00,47,2.70
2011,04,21,00,48,2.50
2011,04,21,00,49,2.50
2011,04,21,00,50,2.40
2011,04,21,00,51,2.40
2011,04,21,00,52,2.30
2011,04,21,00,53,2.30
2011,04,21,00,54,2.20
2011,04,21,00,55,2.20
2011,04,21,00,56,2.20
2011,04,21,00,57,2.10
2011,04,21,00,58,2.10
2011,04,21,00,59,2.10
2011,04,21,01,00,2.00
2011,04,21,01,01,2.00
2011,04,21,01,02,2.00
2011,04,21,01,03,2.00
2011,04,21,01,04,2.00
2011,04,21,01,05,2.00
2011,04,21,01,06,2.00
2011,04,21,01,07,2.10
2011,04,21,01,08,2.10
2011,04,21,01,09,2.10
2011,04,21,01,10,2.10
2011,04,21,01,11,2.10
2011,04,21,01,12,2.20
2011,04,21,01,13,2.20
2011,04,21,01,14,2.20
2011,04,21,01,15,2.20
2011,04,21,01,16,2.30
2011,04,21,01,17,2.40
2011,04,21,01,18,2.50
2011,04,21,01,19,2.60
2011,04,21,01,20,2.60
2011,04,21,01,21,2.70
2011,04,21,01,22,2.70
2011,04,21,01,23,2.80
2011,04,21,01,24,2.90
2011,04,21,01,25,2.90
2011,04,21,01,26,3.00
2011,04,21,01,27,3.10
2011,04,21,01,28,3.10
2011,04,21,01,29,3.10
2011,04,21,01,30,3.10
2011,04,21,01,31,3.10
2011,04,21,01,32,3.10
2011,04,21,01,33,3.10
2011,04,21,01,34,3.10
2011,04,21,01,35,3.20
2011,04,21,01,36,3.20
2011,04,21,01,37,3.20
2011,04,21,01,38,3.20
2011,04,21,01,39,3.20
2011,04,21,01,40,3.20
2011,04,21,01,41,3.10
2011,04,21,01,42,3.10
2011,04,21,01,43,3.10
2011,04,21,01,44,3.10
2011,04,21,01,45,3.10
2011,04,21,01,46,3.10
2011,04,21,01,47,3.10
2011,04,21,01,48,3.10
2011,04,21,01,49,3.10
2011,04,21,01,50,3.10
2011,04,21,01,51,3.10
2011,04,21,01,52,3.10
2011,04,21,01,53,3.10
2011,04,21,01,54,3.10
2011,04,21,01,55,3.10
2011,04,21,01,56,3.00
2011,04,21,01,57,2.90
2011,04,21,01,58,2.90
2011,04,21,01,59,2.90
2011,04,21,02,00,2.90
2011,04,21,02,01,2.90
2011,04,21,02,02,2.90
2011,04,21,02,03,2.90
2011,04,21,02,04,2.80
2011,04,21,02,05,2.80
2011,04,21,02,06,2.70
2011,04,21,02,07,2.70
2011,04,21,02,08,2.60
2011,04,21,02,09,2.50
2011,04,21,02,10,2.40
2011,04,21,02,11,2.30
2011,04,21,02,12,2.30
2011,04,21,02,13,2.20
2011,04,21,02,14,2.20
2011,04,21,02,15,2.20
2011,04,21,02,16,2.20
2011,04,21,02,17,2.20
2011,04,21,02,18,2.20
2011,04,21,02,19,2.20
2011,04,21,02,20,2.20
2011,04,21,02,21,2.20
2011,04,21,02,22,2.20
2011,04,21,02,23,2.30
2011,04,21,02,24,2.30
2011,04,21,02,25,2.30
2011,04,21,02,26,2.40
2011,04,21,02,27,2.40
2011,04,21,02,28,2.40
2011,04,21,02,29,2.40
2011,04,21,02,30,2.40
2011,04,21,02,31,2.40
2011,04,21,02,32,2.40
2011,04,21,02,33,2.40
2011,04,21,02,34,2.40
2011,04,21,02,35,2.40
2011,04,21,02,36,2.30
2011,04,21,02,37,2.30
2011,04,21,02,38,2.20
2011,04,21,02,39,2.20
2011,04,21,02,40,2.10
2011,04,21,02,41,2.00
2011,04,21,02,42,1.90
2011,04,21,02,43,1.90
2011,04,21,02,44,1.80
2011,04,21,02,45,1.80
2011,04,21,02,46,1.80
2011,04,21,02,47,1.80
2011,04,21,02,48,1.80
2011,04,21,02,49,1.80
2011,04,21,02,50,1.80
2011,04,21,02,51,1.80
2011,04,21,02,52,1.80
2011,04,21,02,53,1.90
2011,04,21,02,54,1.90
2011,04,21,02,55,1.90
2011,04,21,02,56,1.90
2011,04,21,02,57,2.00
2011,04,21,02,58,2.00
2011,04,21,02,59,2.00
2011,04,21,03,00,2.10
2011,04,21,03,01,2.10
2011,04,21,03,02,2.10
2011,04,21,03,03,2.10
2011,04,21,03,04,2.10
2011,04,21,03,05,2.10
2011,04,21,03,06,2.10
2011,04,21,03,07,2.10
2011,04,21,03,08,2.10
2011,04,21,03,09,2.10
2011,04,21,03,10,2.10
2011,04,21,03,11,2.10
2011,04,21,03,12,2.10
2011,04,21,03,13,2.10
2011,04,21,03,14,2.00
2011,04,21,03,15,2.00
2011,04,21,03,16,2.00
2011,04,21,03,17,1.90
2011,04,21,03,18,1.90
2011,04,21,03,19,1.80
2011,04,21,03,20,1.80
2011,04,21,03,21,1.80
2011,04,21,03,22,1.80
2011,04,21,03,23,1.80
2011,04,21,03,24,1.80
2011,04,21,03,25,1.80
2011,04,21,03,26,1.70
2011,04,21,03,27,1.70
2011,04,21,03,28,1.70
2011,04,21,03,29,1.70
2011,04,21,03,30,1.70
2011,04,21,03,31,1.70
2011,04,21,03,32,1.70
2011,04,21,03,33,1.70
2011,04,21,03,34,1.70
2011,04,21,03,35,1.60
2011,04,21,03,36,1.60
2011,04,21,03,37,1.60
2011,04,21,03,38,1.60
2011,04,21,03,39,1.60
2011,04,21,03,40,1.50
2011,04,21,03,41,1.50
2011,04,21,03,42,1.50
2011,04,21,03,43,1.50
2011,04,21,03,44,1.50
2011,04,21,03,45,1.50
2011,04,21,03,46,1.60
2011,04,21,03,47,1.60
2011,04,21,03,48,1.60
2011,04,21,03,49,1.60
2011,04,21,03,50,1.60
2011,04,21,03,51,1.60
2011,04,21,03,52,1.70
2011,04,21,03,53,1.70
2011,04,21,03,54,1.80
2011,04,21,03,55,1.80
2011,04,21,03,56,1.80
2011,04,21,03,57,1.80
2011,04,21,03,58,1.80
2011,04,21,03,59,1.80
2011,04,21,04,00,1.80
2011,04,21,04,01,1.80
2011,04,21,04,02,1.70
2011,04,21,04,03,1.70
2011,04,21,04,04,1.70
2011,04,21,04,05,1.70
2011,04,21,04,06,1.70
2011,04,21,04,07,1.80
2011,04,21,04,08,1.80
2011,04,21,04,09,1.80
2011,04,21,04,10,1.80
2011,04,21,04,11,1.80
2011,04,21,04,12,1.70
2011,04,21,04,13,1.70
2011,04,21,04,14,1.70
2011,04,21,04,15,1.70
2011,04,21,04,16,1.70
2011,04,21,04,17,1.80
2011,04,21,04,18,1.80
2011,04,21,04,19,1.70
2011,04,21,04,20,1.70
2011,04,21,04,21,1.70
2011,04,21,04,22,1.70
2011,04,21,04,23,1.70
2011,04,21,04,24,1.70
2011,04,21,04,25,1.60
2011,04,21,04,26,1.60
2011,04,21,04,27,1.60
2011,04,21,04,28,1.60
2011,04,21,04,29,1.60
2011,04,21,04,30,1.50
2011,04,21,04,31,1.50
2011,04,21,04,32,1.40
2011,04,21,04,33,1.40
2011,04,21,04,34,1.40
2011,04,21,04,35,1.40
2011,04,21,04,36,1.40
2011,04,21,04,37,1.40
2011,04,21,04,38,1.50
2011,04,21,04,39,1.50
2011,04,21,04,40,1.50
2011,04,21,04,41,1.50
2011,04,21,04,42,1.50
2011,04,21,04,43,1.50
2011,04,21,04,44,1.50
2011,04,21,04,45,1.50
2011,04,21,04,46,1.50
2011,04,21,04,47,1.50
2011,04,21,04,48,1.50
2011,04,21,04,49,1.50
2011,04,21,04,50,1.50
2011,04,21,04,51,1.50
2011,04,21,04,52,1.60
2011,04,21,04,53,1.60
2011,04,21,04,54,1.60
2011,04,21,04,55,1.60
2011,04,21,04,56,1.60
2011,04,21,04,57,1.60
2011,04,21,04,58,1.60
2011,04,21,04,59,1.60
2011,04,21,05,00,1.60
2011,04,21,05,01,1.60
2011,04,21,05,02,1.60
2011,04,21,05,03,1.60
2011,04,21,05,04,1.60
2011,04,21,05,05,1.40
2011,04,21,05,06,1.30
2011,04,21,05,07,1.30
2011,04,21,05,08,1.20
2011,04,21,05,09,1.20
2011,04,21,05,10,1.20
2011,04,21,05,11,1.20
2011,04,21,05,12,1.30
2011,04,21,05,13,1.30
2011,04,21,05,14,1.20
2011,04,21,05,15,1.20
2011,04,21,05,16,1.10
2011,04,21,05,17,1.10
2011,04,21,05,18,1.10
2011,04,21,05,19,1.20
2011,04,21,05,20,1.20
2011,04,21,05,21,1.20
2011,04,21,05,22,1.20
2011,04,21,05,23,1.20
2011,04,21,05,24,1.20
2011,04,21,05,25,1.20
2011,04,21,05,26,1.20
2011,04,21,05,27,1.20
2011,04,21,05,28,1.20
2011,04,21,05,29,1.20
2011,04,21,05,30,1.30
2011,04,21,05,31,1.30
2011,04,21,05,32,1.30
2011,04,21,05,33,1.30
2011,04,21,05,34,1.30
2011,04,21,05,35,1.30
2011,04,21,05,36,1.30
2011,04,21,05,37,1.30
2011,04,21,05,38,1.30
2011,04,21,05,39,1.30
2011,04,21,05,40,1.30
2011,04,21,05,41,1.30
2011,04,21,05,42,1.40
2011,04,21,05,43,1.40
2011,04,21,05,44,1.40
2011,04,21,05,45,1.40
2011,04,21,05,46,1.40
2011,04,21,05,47,1.40
2011,04,21,05,48,1.40
2011,04,21,05,49,1.40
2011,04,21,05,50,1.40
2011,04,21,05,51,1.30
2011,04,21,05,52,1.30
2011,04,21,05,53,1.30
2011,04,21,05,54,1.30
2011,04,21,05,55,1.30
2011,04,21,05,56,1.30
2011,04,21,05,57,1.30
2011,04,21,05,58,1.30
2011,04,21,05,59,1.30
2011,04,21,06,00,1.30
2011,04,21,06,01,1.30
2011,04,21,06,02,1.30
2011,04,21,06,03,1.30
2011,04,21,06,04,1.30
2011,04,21,06,05,1.30
2011,04,21,06,06,1.30
2011,04,21,06,07,1.30
2011,04,21,06,08,1.30
2011,04,21,06,09,1.30
2011,04,21,06,10,1.30
2011,04,21,06,11,1.30
2011,04,21,06,12,1.30
2011,04,21,06,13,1.30
2011,04,21,06,14,1.30
2011,04,21,06,15,1.30
2011,04,21,06,16,1.30
2011,04,21,06,17,1.30
2011,04,21,06,18,1.20
2011,04,21,06,19,1.20
2011,04,21,06,20,1.10
2011,04,21,06,21,1.10
2011,04,21,06,22,1.10
2011,04,21,06,23,1.10
2011,04,21,06,24,1.10
2011,04,21,06,25,1.10
2011,04,21,06,26,1.20
2011,04,21,06,27,1.20
2011,04,21,06,28,1.20
2011,04,21,06,29,1.20
2011,04,21,06,30,1.10
2011,04,21,06,31,1.10
2011,04,21,06,32,1.00
2011,04,21,06,33,1.00
2011,04,21,06,34,0.90
2011,04,21,06,35,0.90
2011,04,21,06,36,0.80
2011,04,21,06,37,0.80
2011,04,21,06,38,0.80
2011,04,21,06,39,0.80
2011,04,21,06,40,0.80
2011,04,21,06,41,0.80
2011,04,21,06,42,0.80
2011,04,21,06,43,0.80
2011,04,21,06,44,0.80
2011,04,21,06,45,0.80
2011,04,21,06,46,0.80
2011,04,21,06,47,0.80
2011,04,21,06,48,0.80
2011,04,21,06,49,0.80
2011,04,21,06,50,0.80
2011,04,21,06,51,0.80
2011,04,21,06,52,0.80
2011,04,21,06,53,0.80
2011,04,21,06,54,0.80
2011,04,21,06,55,0.80
2011,04,21,06,56,0.80
2011,04,21,06,57,0.80
2011,04,21,06,58,0.80
2011,04,21,06,59,0.80
2011,04,21,07,00,0.80
2011,04,21,07,01,0.80
2011,04,21,07,02,0.80
2011,04,21,07,03,0.90
2011,04,21,07,04,0.90
2011,04,21,07,05,1.00
2011,04,21,07,06,1.10
2011,04,21,07,07,1.20
2011,04,21,07,08,1.30
2011,04,21,07,09,1.40
2011,04,21,07,10,1.60
2011,04,21,07,11,1.70
2011,04,21,07,12,1.80
2011,04,21,07,13,1.80
2011,04,21,07,14,1.80
2011,04,21,07,15,1.80
2011,04,21,07,16,1.80
2011,04,21,07,17,1.80
2011,04,21,07,18,1.80
2011,04,21,07,19,1.80
2011,04,21,07,20,1.80
2011,04,21,07,21,1.80
2011,04,21,07,22,1.80
2011,04,21,07,23,1.80
2011,04,21,07,24,1.80
2011,04,21,07,25,1.80
2011,04,21,07,26,1.80
2011,04,21,07,27,1.80
2011,04,21,07,28,1.90
2011,04,21,07,29,1.90
2011,04,21,07,30,2.00
2011,04,21,07,31,2.00
2011,04,21,07,32,2.10
2011,04,21,07,33,2.20
2011,04,21,07,34,2.20
2011,04,21,07,35,2.30
2011,04,21,07,36,2.40
2011,04,21,07,37,2.50
2011,04,21,07,38,2.50
2011,04,21,07,39,2.70
2011,04,21,07,40,2.70
2011,04,21,07,41,2.80
2011,04,21,07,42,2.90
2011,04,21,07,43,3.00
2011,04,21,07,44,3.10
2011,04,21,07,45,3.30
2011,04,21,07,46,3.60
2011,04,21,07,47,3.80
2011,04,21,07,48,3.90
2011,04,21,07,49,4.00
2011,04,21,07,50,4.10
2011,04,21,07,51,4.20
2011,04,21,07,52,4.40
2011,04,21,07,53,4.50
2011,04,21,07,54,4.60
2011,04,21,07,55,4.60
2011,04,21,07,56,4.80
2011,04,21,07,57,4.90
2011,04,21,07,58,5.10
2011,04,21,07,59,5.10
2011,04,21,08,00,5.20
2011,04,21,08,01,5.40
2011,04,21,08,02,5.50
2011,04,21,08,03,5.60
2011,04,21,08,04,5.70
2011,04,21,08,05,5.70
2011,04,21,08,06,5.90
2011,04,21,08,07,6.00
2011,04,21,08,08,6.10
2011,04,21,08,09,6.20
2011,04,21,08,10,6.20
2011,04,21,08,11,6.30
2011,04,21,08,12,6.40
2011,04,21,08,13,6.50
2011,04,21,08,14,6.60
2011,04,21,08,15,6.60
2011,04,21,08,16,6.80
2011,04,21,08,17,6.90
2011,04,21,08,18,7.00
2011,04,21,08,19,7.10
2011,04,21,08,20,7.30
2011,04,21,08,21,7.30
2011,04,21,08,22,7.30
2011,04,21,08,23,7.30
2011,04,21,08,24,7.30
2011,04,21,08,25,7.30
2011,04,21,08,26,7.30
2011,04,21,08,27,7.30
2011,04,21,08,28,7.30
2011,04,21,08,29,7.30
2011,04,21,08,30,7.30
2011,04,21,08,31,7.30
2011,04,21,08,32,7.40
2011,04,21,08,33,7.40
2011,04,21,08,34,7.50
2011,04,21,08,35,7.50
2011,04,21,08,36,7.60
2011,04,21,08,37,7.70
2011,04,21,08,38,7.70
2011,04,21,08,39,7.70
2011,04,21,08,40,7.80
2011,04,21,08,41,7.80
2011,04,21,08,42,7.70
2011,04,21,08,43,7.60
2011,04,21,08,44,7.60
2011,04,21,08,45,7.60
2011,04,21,08,46,7.60
2011,04,21,08,47,7.70
2011,04,21,08,48,7.80
2011,04,21,08,49,7.80
2011,04,21,08,50,7.80
2011,04,21,08,51,7.80
2011,04,21,08,52,7.80
2011,04,21,08,53,7.80
2011,04,21,08,54,7.80
2011,04,21,08,55,7.90
2011,04,21,08,56,7.90
2011,04,21,08,57,8.00
2011,04,21,08,58,8.00
2011,04,21,08,59,8.00
2011,04,21,09,00,8.10
2011,04,21,09,01,8.10
2011,04,21,09,02,8.20
2011,04,21,09,03,8.20
2011,04,21,09,04,8.30
2011,04,21,09,05,8.40
2011,04,21,09,06,8.40
2011,04,21,09,07,8.30
2011,04,21,09,08,8.30
2011,04,21,09,09,8.30
2011,04,21,09,10,8.20
2011,04,21,09,11,8.20
2011,04,21,09,12,8.20
2011,04,21,09,13,8.30
2011,04,21,09,14,8.30
2011,04,21,09,15,8.20
2011,04,21,09,16,8.20
2011,04,21,09,17,8.20
2011,04,21,09,18,8.20
2011,04,21,09,19,8.20
2011,04,21,09,20,8.20
2011,04,21,09,21,8.30
2011,04,21,09,22,8.40
2011,04,21,09,23,8.50
2011,04,21,09,24,8.70
2011,04,21,09,25,8.80
2011,04,21,09,26,8.90
2011,04,21,09,27,9.00
2011,04,21,09,28,9.10
2011,04,21,09,29,9.20
2011,04,21,09,30,9.30
2011,04,21,09,31,9.30
2011,04,21,09,32,9.30
2011,04,21,09,33,9.30
2011,04,21,09,34,9.30
2011,04,21,09,35,9.20
2011,04,21,09,36,9.20
2011,04,21,09,37,9.10
2011,04,21,09,38,9.00
2011,04,21,09,39,9.00
2011,04,21,09,40,8.90
2011,04,21,09,41,8.80
2011,04,21,09,42,8.80
2011,04,21,09,43,8.70
2011,04,21,09,44,8.70
2011,04,21,09,45,8.60
2011,04,21,09,46,8.60
2011,04,21,09,47,8.60
2011,04,21,09,48,8.60
2011,04,21,09,49,8.70
2011,04,21,09,50,8.60
2011,04,21,09,51,8.60
2011,04,21,09,52,8.60
2011,04,21,09,53,8.70
2011,04,21,09,54,8.70
2011,04,21,09,55,8.70
2011,04,21,09,56,8.70
2011,04,21,09,57,8.80
2011,04,21,09,58,8.80
2011,04,21,09,59,8.90
2011,04,21,10,00,8.90
2011,04,21,10,01,9.00
2011,04,21,10,02,9.20
2011,04,21,10,03,9.20
2011,04,21,10,04,9.20
2011,04,21,10,05,9.30
2011,04,21,10,06,9.40
2011,04,21,10,07,9.40
2011,04,21,10,08,9.40
2011,04,21,10,09,9.20
2011,04,21,10,10,9.10
2011,04,21,10,11,9.10
2011,04,21,10,12,9.10
2011,04,21,10,13,9.20
2011,04,21,10,14,9.20
2011,04,21,10,15,9.20
2011,04,21,10,16,9.20
2011,04,21,10,17,9.20
2011,04,21,10,18,9.20
2011,04,21,10,19,9.20
2011,04,21,10,20,9.30
2011,04,21,10,21,9.30
2011,04,21,10,22,9.30
2011,04,21,10,23,9.20
2011,04,21,10,24,9.20
2011,04,21,10,25,9.20
2011,04,21,10,26,9.20
2011,04,21,10,27,9.20
2011,04,21,10,28,9.20
2011,04,21,10,29,9.20
2011,04,21,10,30,9.30
2011,04,21,10,31,9.30
2011,04,21,10,32,9.40
2011,04,21,10,33,9.40
2011,04,21,10,34,9.40
2011,04,21,10,35,9.30
2011,04,21,10,36,9.30
2011,04,21,10,37,9.30
2011,04,21,10,38,9.20
2011,04,21,10,39,9.10
2011,04,21,10,40,9.10
2011,04,21,10,41,9.10
2011,04,21,10,42,9.20
2011,04,21,10,43,9.20
2011,04,21,10,44,9.20
2011,04,21,10,45,9.20
2011,04,21,10,46,9.30
2011,04,21,10,47,9.40
2011,04,21,10,48,9.50
2011,04,21,10,49,9.70
2011,04,21,10,50,9.80
2011,04,21,10,51,9.90
2011,04,21,10,52,9.90
2011,04,21,10,53,9.90
2011,04,21,10,54,9.90
2011,04,21,10,55,9.90
2011,04,21,10,56,9.90
2011,04,21,10,57,9.90
2011,04,21,10,58,9.90
2011,04,21,10,59,9.90
2011,04,21,11,00,9.80
2011,04,21,11,01,9.70
2011,04,21,11,02,9.70
2011,04,21,11,03,9.60
2011,04,21,11,04,9.50
2011,04,21,11,05,9.40
2011,04,21,11,06,9.20
2011,04,21,11,07,9.10
2011,04,21,11,08,9.00
2011,04,21,11,09,9.00
2011,04,21,11,10,8.90
2011,04,21,11,11,8.90
2011,04,21,11,12,8.90
2011,04,21,11,13,8.90
2011,04,21,11,14,8.90
2011,04,21,11,15,9.00
2011,04,21,11,16,9.10
2011,04,21,11,17,9.10
2011,04,21,11,18,9.20
2011,04,21,11,19,9.20
2011,04,21,11,20,9.20
2011,04,21,11,21,9.20
2011,04,21,11,22,9.20
2011,04,21,11,23,9.20
2011,04,21,11,24,9.20
2011,04,21,11,25,9.20
2011,04,21,11,26,9.20
2011,04,21,11,27,9.10
2011,04,21,11,28,9.00
2011,04,21,11,29,9.00
2011,04,21,11,30,9.00
2011,04,21,11,31,8.90
2011,04,21,11,32,8.90
2011,04,21,11,33,8.90
2011,04,21,11,34,8.90
2011,04,21,11,35,8.90
2011,04,21,11,36,8.90
2011,04,21,11,37,8.90
2011,04,21,11,38,8.90
2011,04,21,11,39,9.00
2011,04,21,11,40,9.10
2011,04,21,11,41,9.20
2011,04,21,11,42,9.20
2011,04,21,11,43,9.20
2011,04,21,11,44,9.30
2011,04,21,11,45,9.30
2011,04,21,11,46,9.40
2011,04,21,11,47,9.50
2011,04,21,11,48,9.60
2011,04,21,11,49,9.60
2011,04,21,11,50,9.60
2011,04,21,11,51,9.60
2011,04,21,11,52,9.50
2011,04,21,11,53,9.50
2011,04,21,11,54,9.50
2011,04,21,11,55,9.50
2011,04,21,11,56,9.60
2011,04,21,11,57,9.70
2011,04,21,11,58,9.70
2011,04,21,11,59,9.70
2011,04,21,12,00,9.70
2011,04,21,12,01,9.70
2011,04,21,12,02,9.70
2011,04,21,12,03,9.70
2011,04,21,12,04,9.70
2011,04,21,12,05,9.70
2011,04,21,12,06,9.70
2011,04,21,12,07,9.70
2011,04,21,12,08,9.70
2011,04,21,12,09,9.70
2011,04,21,12,10,9.70
2011,04,21,12,11,9.70
2011,04,21,12,12,9.80
2011,04,21,12,13,9.90
2011,04,21,12,14,9.90
2011,04,21,12,15,10.10
2011,04,21,12,16,10.10
2011,04,21,12,17,10.10
2011,04,21,12,18,10.10
2011,04,21,12,19,10.10
2011,04,21,12,20,10.00
2011,04,21,12,21,9.90
2011,04,21,12,22,9.90
2011,04,21,12,23,9.80
2011,04,21,12,24,9.80
2011,04,21,12,25,9.80
2011,04,21,12,26,9.80
2011,04,21,12,27,9.80
2011,04,21,12,28,9.80
2011,04,21,12,29,9.80
2011,04,21,12,30,9.80
2011,04,21,12,31,9.80
2011,04,21,12,32,9.80
2011,04,21,12,33,9.80
2011,04,21,12,34,9.70
2011,04,21,12,35,9.70
2011,04,21,12,36,9.80
2011,04,21,12,37,9.80
2011,04,21,12,38,9.90
2011,04,21,12,39,9.90
2011,04,21,12,40,9.90
2011,04,21,12,41,9.90
2011,04,21,12,42,9.90
2011,04,21,12,43,10.00
2011,04,21,12,44,10.10
2011,04,21,12,45,10.10
2011,04,21,12,46,10.10
2011,04,21,12,47,10.00
2011,04,21,12,48,9.90
2011,04,21,12,49,9.80
2011,04,21,12,50,9.70
2011,04,21,12,51,9.70
2011,04,21,12,52,9.70
2011,04,21,12,53,9.80
2011,04,21,12,54,9.90
2011,04,21,12,55,9.90
2011,04,21,12,56,9.90
2011,04,21,12,57,9.90
2011,04,21,12,58,10.00
2011,04,21,12,59,10.10
2011,04,21,13,00,10.20
2011,04,21,13,01,10.20
2011,04,21,13,02,10.30
2011,04,21,13,03,10.30
2011,04,21,13,04,10.20
2011,04,21,13,05,10.20
2011,04,21,13,06,10.20
2011,04,21,13,07,10.20
2011,04,21,13,08,10.30
2011,04,21,13,09,10.30
2011,04,21,13,10,10.20
2011,04,21,13,11,10.20
2011,04,21,13,12,10.10
2011,04,21,13,13,10.10
2011,04,21,13,14,10.20
2011,04,21,13,15,10.20
2011,04,21,13,16,10.10
2011,04,21,13,17,10.10
2011,04,21,13,18,10.10
2011,04,21,13,19,10.10
2011,04,21,13,20,10.10
2011,04,21,13,21,10.20
2011,04,21,13,22,10.30
2011,04,21,13,23,10.30
2011,04,21,13,24,10.40
2011,04,21,13,25,10.40
2011,04,21,13,26,10.50
2011,04,21,13,27,10.60
2011,04,21,13,28,10.60
2011,04,21,13,29,10.80
2011,04,21,13,30,10.90
2011,04,21,13,31,10.80
2011,04,21,13,32,10.80
2011,04,21,13,33,10.70
2011,04,21,13,34,10.70
2011,04,21,13,35,10.70
2011,04,21,13,36,10.90
2011,04,21,13,37,11.00
2011,04,21,13,38,11.10
2011,04,21,13,39,11.30
2011,04,21,13,40,11.40
2011,04,21,13,41,11.40
2011,04,21,13,42,11.60
2011,04,21,13,43,11.70
2011,04,21,13,44,11.80
2011,04,21,13,45,11.80
2011,04,21,13,46,11.80
2011,04,21,13,47,11.80
2011,04,21,13,48,11.70
2011,04,21,13,49,11.70
2011,04,21,13,50,11.70
2011,04,21,13,51,11.80
2011,04,21,13,52,11.80
2011,04,21,13,53,11.80
2011,04,21,13,54,11.80
2011,04,21,13,55,11.90
2011,04,21,13,56,11.90
2011,04,21,13,57,11.80
2011,04,21,13,58,11.90
2011,04,21,13,59,11.90
2011,04,21,14,00,11.90
2011,04,21,14,01,11.90
2011,04,21,14,02,11.90
2011,04,21,14,03,11.90
2011,04,21,14,04,12.00
2011,04,21,14,05,12.00
2011,04,21,14,06,12.00
2011,04,21,14,07,12.00
2011,04,21,14,08,12.10
2011,04,21,14,09,12.00
2011,04,21,14,10,12.00
2011,04,21,14,11,12.00
2011,04,21,14,12,11.80
2011,04,21,14,13,11.80
2011,04,21,14,14,11.80
2011,04,21,14,15,11.80
2011,04,21,14,16,11.70
2011,04,21,14,17,11.80
2011,04,21,14,18,11.80
2011,04,21,14,19,11.80
2011,04,21,14,20,11.80
2011,04,21,14,21,11.80
2011,04,21,14,22,12.00
2011,04,21,14,23,12.10
2011,04,21,14,24,12.20
2011,04,21,14,25,12.20
2011,04,21,14,26,12.10
2011,04,21,14,27,12.20
2011,04,21,14,28,12.30
2011,04,21,14,29,12.30
2011,04,21,14,30,12.20
2011,04,21,14,31,12.20
2011,04,21,14,32,12.20
2011,04,21,14,33,12.10
2011,04,21,14,34,12.00
2011,04,21,14,35,11.90
2011,04,21,14,36,11.80
2011,04,21,14,37,11.60
2011,04,21,14,38,11.60
2011,04,21,14,39,11.40
2011,04,21,14,40,11.40
2011,04,21,14,41,11.50
2011,04,21,14,42,11.60
2011,04,21,14,43,11.60
2011,04,21,14,44,11.70
2011,04,21,14,45,11.80
2011,04,21,14,46,11.80
2011,04,21,14,47,11.90
2011,04,21,14,48,12.00
2011,04,21,14,49,12.10
2011,04,21,14,50,12.10
2011,04,21,14,51,12.20
2011,04,21,14,52,12.30
2011,04,21,14,53,12.30
2011,04,21,14,54,12.40
2011,04,21,14,55,12.50
2011,04,21,14,56,12.70
2011,04,21,14,57,12.80
2011,04,21,14,58,12.90
2011,04,21,14,59,12.90
2011,04,21,15,00,12.80
2011,04,21,15,01,12.60
2011,04,21,15,02,12.50
2011,04,21,15,03,12.60
2011,04,21,15,04,12.70
2011,04,21,15,05,12.70
2011,04,21,15,06,12.70
2011,04,21,15,07,12.70
2011,04,21,15,08,12.70
2011,04,21,15,09,12.60
2011,04,21,15,10,12.40
2011,04,21,15,11,12.30
2011,04,21,15,12,12.10
2011,04,21,15,13,11.90
2011,04,21,15,14,11.80
2011,04,21,15,15,11.80
2011,04,21,15,16,11.60
2011,04,21,15,17,11.60
2011,04,21,15,18,11.50
2011,04,21,15,19,11.50
2011,04,21,15,20,11.60
2011,04,21,15,21,11.60
2011,04,21,15,22,11.50
2011,04,21,15,23,11.40
2011,04,21,15,24,11.40
2011,04,21,15,25,11.40
2011,04,21,15,26,11.40
2011,04,21,15,27,11.40
2011,04,21,15,28,11.40
2011,04,21,15,29,11.40
2011,04,21,15,30,11.40
2011,04,21,15,31,11.40
2011,04,21,15,32,11.40
2011,04,21,15,33,11.40
2011,04,21,15,34,11.40
2011,04,21,15,35,11.40
2011,04,21,15,36,11.40
2011,04,21,15,37,11.40
2011,04,21,15,38,11.40
2011,04,21,15,39,11.50
2011,04,21,15,40,11.60
2011,04,21,15,41,11.50
2011,04,21,15,42,11.40
2011,04,21,15,43,11.40
2011,04,21,15,44,11.40
2011,04,21,15,45,11.30
2011,04,21,15,46,11.30
2011,04,21,15,47,11.20
2011,04,21,15,48,11.10
2011,04,21,15,49,11.10
2011,04,21,15,50,11.00
2011,04,21,15,51,10.90
2011,04,21,15,52,10.90
2011,04,21,15,53,10.90
2011,04,21,15,54,10.90
2011,04,21,15,55,10.90
2011,04,21,15,56,10.90
2011,04,21,15,57,11.00
2011,04,21,15,58,11.20
2011,04,21,15,59,11.30
2011,04,21,16,00,11.40
2011,04,21,16,01,11.50
2011,04,21,16,02,11.60
2011,04,21,16,03,11.80
2011,04,21,16,04,11.80
2011,04,21,16,05,11.80
2011,04,21,16,06,11.90
2011,04,21,16,07,11.90
2011,04,21,16,08,11.80
2011,04,21,16,09,11.80
2011,04,21,16,10,11.80
2011,04,21,16,11,11.80
2011,04,21,16,12,11.90
2011,04,21,16,13,12.10
2011,04,21,16,14,12.10
2011,04,21,16,15,12.10
2011,04,21,16,16,12.10
2011,04,21,16,17,12.20
2011,04,21,16,18,12.20
2011,04,21,16,19,12.30
2011,04,21,16,20,12.30
2011,04,21,16,21,12.30
2011,04,21,16,22,12.30
2011,04,21,16,23,12.30
2011,04,21,16,24,12.30
2011,04,21,16,25,12.30
2011,04,21,16,26,12.20
2011,04,21,16,27,12.10
2011,04,21,16,28,12.00
2011,04,21,16,29,11.90
2011,04,21,16,30,11.90
2011,04,21,16,31,11.80
2011,04,21,16,32,11.80
2011,04,21,16,33,11.80
2011,04,21,16,34,11.80
2011,04,21,16,35,11.80
2011,04,21,16,36,11.80
2011,04,21,16,37,11.70
2011,04,21,16,38,11.70
2011,04,21,16,39,11.80
2011,04,21,16,40,11.70
2011,04,21,16,41,11.70
2011,04,21,16,42,11.80
2011,04,21,16,43,11.80
2011,04,21,16,44,11.80
2011,04,21,16,45,11.80
2011,04,21,16,46,11.90
2011,04,21,16,47,11.90
2011,04,21,16,48,12.00
2011,04,21,16,49,12.00
2011,04,21,16,50,12.00
2011,04,21,16,51,12.00
2011,04,21,16,52,12.00
2011,04,21,16,53,11.90
2011,04,21,16,54,11.80
2011,04,21,16,55,11.80
2011,04,21,16,56,11.80
2011,04,21,16,57,11.90
2011,04,21,16,58,11.90
2011,04,21,16,59,11.80
2011,04,21,17,00,11.80
2011,04,21,17,01,11.80
2011,04,21,17,02,11.80
2011,04,21,17,03,11.70
2011,04,21,17,04,11.60
2011,04,21,17,05,11.50
2011,04,21,17,06,11.40
2011,04,21,17,07,11.40
2011,04,21,17,08,11.40
2011,04,21,17,09,11.40
2011,04,21,17,10,11.40
2011,04,21,17,11,11.40
2011,04,21,17,12,11.40
2011,04,21,17,13,11.50
2011,04,21,17,14,11.60
2011,04,21,17,15,11.60
2011,04,21,17,16,11.60
2011,04,21,17,17,11.60
2011,04,21,17,18,11.60
2011,04,21,17,19,11.60
2011,04,21,17,20,11.50
2011,04,21,17,21,11.40
2011,04,21,17,22,11.40
2011,04,21,17,23,11.40
2011,04,21,17,24,11.40
2011,04,21,17,25,11.30
2011,04,21,17,26,11.20
2011,04,21,17,27,11.10
2011,04,21,17,28,11.10
2011,04,21,17,29,11.10
2011,04,21,17,30,11.20
2011,04,21,17,31,11.20
2011,04,21,17,32,11.30
2011,04,21,17,33,11.30
2011,04,21,17,34,11.40
2011,04,21,17,35,11.40
2011,04,21,17,36,11.40
2011,04,21,17,37,11.30
2011,04,21,17,38,11.30
2011,04,21,17,39,11.30
2011,04,21,17,40,11.40
2011,04,21,17,41,11.50
2011,04,21,17,42,11.60
2011,04,21,17,43,11.70
2011,04,21,17,44,11.70
2011,04,21,17,45,11.80
2011,04,21,17,46,11.80
2011,04,21,17,47,11.70
2011,04,21,17,48,11.50
2011,04,21,17,49,11.30
2011,04,21,17,50,11.30
2011,04,21,17,51,11.20
2011,04,21,17,52,11.20